Location: Asheville, NC
(35.6000°N, 82.5500°W)
Time: 01:27:48
(UTC-05:00)

OTV 5 (USA 277) - Pass Details

Date: 17 February 2018
Orbit: 404 x 417 km, 43.0° (Epoch: 07 September)

Event Time Altitude Azimuth Distance (km) Brightness Sun altitude
Rises 06:14:38 0° 201° (SSW) 2,296 ? -12.9°
Reaches altitude 10° 06:17:19 10° 177° (S) 1,443 ? -12.3°
Maximum altitude 06:19:17 15° 140° (SE) 1,180 ? -11.9°
Drops below altitude 10° 06:21:16 10° 103° (ESE) 1,450 ? -11.5°
Sets 06:23:59 0° 79° (E) 2,316 ? -11.0°
